Погода в Лангшоне

Вьетнам     21°51′20″N   106°46′06″E
темп.,
°C
ветер,
м/с
пор.,
м/с
влажн.,
%
обл.,
%
осадки,
мм/ч
давл.,
гПа
погр.,
м
17 августа, ср
ср1701:00+24ююз1193100 1.1 100624
04:00+24зюз1197100 0.6 100612
07:00+25ююв0190100 0.6 1006161
10:00+30ююз1164100 0.0 10071059
13:00+33юз225497 0.0 10041718
16:00+30зюз237179 0.3 1002135
19:00+26ююв22855 1.3 100419
22:00+25юв11907 0.1 100614
18 августа, чт
чт1801:00+24ююв11955 5.5 100515
04:00+23юз119528 1.3 100411
07:00+25ю00882 1.3 1005120
10:00+30ююз22644 0.0 10051010
13:00+32юз2255100 0.0 10031667
16:00+32зюз225646 0.0 10011141
19:00+27ю118070 0.1 100313
22:00+26ююв118782 0.0 100516
19 августа, пт
пт1901:00+25юз1192100 2.1 100313
04:00+24юв009631 4.1 100312
07:00+26ссв119092 4.2 1004113
10:00+30ссз116899 2.4 1005918
13:00+32с126153 3.2 10021297
16:00+30в127382 1.1 1001185
19:00+27ююв118358 1.9 100212
22:00+25юв118998 0.4 100414
20 августа, сб
сб2001:00+24в1192100 3.1 100311
04:00+24св11945 1.4 100315
07:00+25с12910 1.9 1004178
10:00+29св227516 4.6 1004864
13:00+29всв237534 9.3 1002973
16:00+29всв237429 2.9 1000912
19:00+25св2291100 5.7 100132
22:00+25ссв129190 2.5 100224
21 августа, вс
вс2101:00+24ссв229679 2.9 100239
04:00+23ссв129823 1.9 100152
07:00+24ссв239662 2.9 1003274
10:00+27св348273 0.8 1002814
13:00+27в228376 4.9 1001645
16:00+27юв238499 7.1 1000599
19:00+25юв2293100 11.6 100160
22:00+24юв11959 0.3 100315